This is the latest recevied weather packets stored in our database for station/object SP1BMW-13. If no packets are shown the sender has not sent any weather packets the latest 10 day(s).
| Time | Temp. | Humidity | Pressure | Rain* | Wind** | Luminosity | Snow |
|---|---|---|---|---|---|---|---|
| 1787760794 | 23.33° C | 42% | 1020.4 hPa | 0 mm | 0.45 m/s, 17° | 151 W/m² | - |
| 1787760734 | 23.33° C | 42% | 1020.2 hPa | 0 mm | 0.89 m/s, 30° | 154 W/m² | - |
| 1787760674 | 23.33° C | 43% | 1020.2 hPa | 0 mm | 0 m/s | 154 W/m² | - |
| 1787760614 | 23.33° C | 42% | 1020.2 hPa | 0 mm | 0.89 m/s, 68° | 147 W/m² | - |
| 1787760554 | 23.33° C | 42% | 1020.4 hPa | 0 mm | 2.24 m/s, 11° | 157 W/m² | - |
| 1787760494 | 23.89° C | 42% | 1020.2 hPa | 0 mm | 0.89 m/s, 54° | 155 W/m² | - |
| 1787760434 | 23.89° C | 42% | 1020.4 hPa | 0 mm | 1.34 m/s, 43° | 131 W/m² | - |
| 1787760374 | 23.89° C | 42% | 1020.4 hPa | 0 mm | 0.89 m/s, 36° | 126 W/m² | - |
| 1787760314 | 23.89° C | 41% | 1020.3 hPa | 0 mm | 0.89 m/s, 4° | 141 W/m² | - |
| 1787760254 | 23.89° C | 42% | 1020.5 hPa | 0 mm | 0.89 m/s, 25° | 148 W/m² | - |
| 1787760194 | 23.89° C | 42% | 1020.3 hPa | 0 mm | 0.45 m/s, 41° | 141 W/m² | - |
| 1787760134 | 23.89° C | 41% | 1020.5 hPa | 0 mm | 0.89 m/s, 30° | 148 W/m² | - |
| 1787760074 | 23.89° C | 43% | 1020.4 hPa | 0 mm | 0.45 m/s, 94° | 147 W/m² | - |
| 1787760014 | 23.89° C | 41% | 1020.4 hPa | 0 mm | 0.89 m/s, 25° | 148 W/m² | - |
| 1787759954 | 23.89° C | 42% | 1020.4 hPa | 0 mm | 0.45 m/s, 40° | 144 W/m² | - |
| 1787759894 | 23.89° C | 43% | 1020.5 hPa | 0 mm | 0.45 m/s, 40° | 141 W/m² | - |
| 1787759834 | 23.89° C | 41% | 1020.3 hPa | 0 mm | 1.34 m/s, 36° | 127 W/m² | - |
| 1787759774 | 24.44° C | 41% | 1020.3 hPa | 0 mm | 0.45 m/s, 54° | 144 W/m² | - |
| 1787759714 | 24.44° C | 40% | 1020.3 hPa | 0 mm | 1.34 m/s, 98° | 145 W/m² | - |
| 1787759654 | 24.44° C | 40% | 1020.3 hPa | 0 mm | 1.34 m/s, 88° | 142 W/m² | - |
| 1787759594 | 24.44° C | 41% | 1020.3 hPa | 0 mm | 0.45 m/s, 107° | 148 W/m² | - |
| 1787759534 | 24.44° C | 40% | 1020.4 hPa | 0 mm | 0.45 m/s, 39° | 154 W/m² | - |
| 1787759474 | 24.44° C | 40% | 1020.3 hPa | 0 mm | 0.45 m/s, 75° | 168 W/m² | - |
| 1787759414 | 24.44° C | 40% | 1020.4 hPa | 0 mm | 0.89 m/s, 40° | 175 W/m² | - |
| 1787759354 | 24.44° C | 41% | 1020.5 hPa | 0 mm | 0 m/s | 181 W/m² | - |
* Rain latest hour (hover to see other rain measurements)
** Current wind speed in m/s (hover to see current wind gust speed)